Probability
0 0 0 0 0 0 0 0 0 0 0 0 0 0 0 0 0 0 0 0 0 0 0 0 0 0 0 0 0 0 0 0 0 0 0 0 0 0 0 0 0 0 0
0 0 0 0 0 0 0 0 0 0 0 0 0 0 0 0 0 0 0 0 0 0 0 0 0 0 0 0 0 0 0 0 0 0 0 0 0 0 0 0 0 0 0
0 0 0 0 0 0 0 0 0 0 0 0 0 0 0 0 0 0 0 0 0 0 0 0 0 0 0 0 0 0 0 0 0 0 0 0 0 0 0 0 0 0 0
1 0 0 0 0 0 0 0 0 0 0 0 0 0 0 0 0 0 0 0 0 0 0 0 0 0 0 0 0 0 0 0 0 0 0 0 0 0 0 0 0 0 0
2 1 0 0 0 0 0 0 0 0 0 0 0 0 0 0 0 0 0 0 0 0 0 0 0 0 0 0 0 0 0 0 0 0 0 0 0 0 0 0 0 0 0
2 1 0 0 0 0 0 0 0 0 0 0 0 0 0 0 0 0 0 0 0 0 0 0 0 0 0 0 0 0 0 0 0 0 0 0 0 0 0 0 0 0 0
3 2 1 0 0 0 0 0 0 0 0 0 0 0 0 0 0 0 0 0 0 0 0 0 0 0 0 0 0 0 0 0 0 0 0 0 0 0 0 0 0 0 0
3 2 1 0 0 0 0 0 0 0 0 0 0 0 0 0 0 0 0 0 0 0 0 0 0 0 0 0 0 0 0 0 0 0 1 0 0 0 0 0 0 0 0
3 2 1 1 1 1 1 1 1 0 0 0 0 0 0 0 0 0 0 0 0 0 0 0 0 0 0 0 0 0 0 0 0 0 0 0 0 0 0 0 0 0 0
3 2 2 2 2 3 3 2 2 1 1 2 1 0 0 0 0 0 0 0 0 0 0 0 0 0 0 0 0 0 0 0 0 0 0 0 0 0 0 0 0 0 0
3 3 3 3 3 4 4 3 2 2 2 3 2 1 0 0 0 0 0 0 0 0 0 0 0 0 0 0 0 0 0 0 0 0 0 0 0 0 0 0 0 0 0
3 3 3 3 3 4 5 3 1 1 1 2 2 2 1 0 0 0 1 1 1 0 0 0 0 0 0 0 0 0 0 0 0 0 0 0 0 0 0 0 0 0 0
3 3 4 4 4 5 5 3 1 0 1 1 1 1 1 0 0 0 1 2 2 1 0 0 0 0 0 0 0 0 0 0 0 0 0 0 0 0 0 0 0 0 0
4 4 6 8 7 7 6 3 1 1 2 1 1 0 0 0 0 0 1 2 2 1 1 1 0 0 0 0 0 0 0 0 0 0 0 0 0 0 0 0 0 0 0
8 7 9 11 11 11 9 6 3 2 3 3 1 0 0 0 0 0 0 1 1 1 2 1 0 0 0 0 0 0 0 0 0 0 0 0 0 0 0 0 0 0 0
13 14 15 15 15 14 12 9 6 3 2 3 2 1 0 0 0 0 0 0 0 1 2 2 1 0 0 0 0 0 0 0 0 0 0 0 0 0 0 0 0 0 0
22 23 22 20 20 19 15 10 6 4 3 3 3 3 2 1 1 0 0 0 0 1 2 2 1 0 0 0 0 0 0 0 1 1 0 1 1 0 0 0 0 0 0
32 32 28 24 25 25 18 13 9 6 5 4 4 4 4 3 2 1 0 0 0 1 2 2 1 0 0 0 0 0 0 0 1 1 1 1 1 1 1 0 0 0 0
43 41 35 30 30 28 22 17 13 8 6 6 5 5 6 6 4 3 1 1 2 2 3 3 1 1 1 1 0 0 0 1 1 1 1 1 1 2 2 1 1 0 0
50 47 41 37 33 29 24 20 15 11 9 8 6 6 8 7 5 3 2 3 4 4 4 4 4 3 2 2 1 1 1 2 2 3 2 1 0 1 3 4 3 2 1
53 50 46 42 37 30 26 23 19 16 13 10 9 11 11 8 5 3 2 4 5 5 5 7 7 5 4 3 3 2 2 2 3 4 4 3 2 2 4 7 8 7 6
57 52 47 43 39 33 29 26 23 20 17 13 13 14 12 8 4 3 3 5 7 8 9 11 11 8 5 4 4 4 3 2 2 3 4 5 5 5 6 8 10 11 10
60 55 47 44 41 36 33 30 26 23 20 16 14 15 13 8 5 4 5 7 9 12 13 14 14 11 7 6 7 8 6 4 3 2 3 4 6 7 7 7 9 11 11
60 57 52 49 46 40 36 35 31 27 22 17 14 13 13 10 7 6 7 9 12 14 15 15 15 14 12 10 10 10 10 8 6 4 2 3 5 7 7 7 7 9 9
56 57 54 52 49 44 39 37 35 31 24 17 13 13 13 12 10 9 10 11 12 13 14 15 16 16 16 14 12 11 11 10 9 6 4 3 5 7 8 7 7 8 9
51 54 53 51 50 46 41 38 35 31 25 18 15 15 15 13 12 11 12 12 12 12 13 14 17 19 18 15 13 12 11 10 9 8 5 4 4 6 8 7 6 8 10
Wind_Speed
15 15 14 14 14 14 14 14 13 13 13 13 13 14 14 14 15 15 15 15 16 15 15 15 16 16 16 16 16 16 16 16 17 17 17 17 15 14 14 16 17 13 16
18 16 15 14 14 13 13 13 13 13 13 13 13 13 13 14 14 14 14 15 15 15 15 15 15 16 16 15 15 14 14 14 15 16 17 16 15 14 13 15 16 11 16
18 16 15 14 14 13 13 12 12 13 13 12 13 13 13 13 14 14 14 14 15 15 15 15 15 15 15 14 13 12 12 12 12 13 13 11 12 15 16 17 17 16 15
18 15 14 14 13 13 13 12 12 12 12 12 12 13 13 13 13 14 14 14 14 14 14 14 14 14 13 12 11 10 9 8 7 7 7 10 10 14 15 16 16 15 14
18 16 15 14 13 13 12 12 12 12 12 12 12 12 12 12 13 13 14 14 14 13 13 14 13 13 12 11 8 7 5 4 3 7 10 10 8 12 14 15 15 15 14
18 16 15 14 13 13 12 12 12 12 12 11 12 11 12 12 13 13 13 13 13 13 13 13 12 12 11 9 6 4 3 2 2 9 9 9 8 12 14 14 14 14 14
18 16 15 14 13 12 12 12 12 11 11 11 11 11 11 11 12 12 12 12 12 12 11 11 11 10 9 7 4 3 3 4 4 9 9 9 9 12 14 14 14 13 13
18 17 14 14 13 12 12 11 11 10 10 10 11 11 11 11 11 12 12 12 11 11 10 10 10 9 8 5 2 2 4 5 9 11 10 9 11 12 13 13 13 13 12
18 16 14 13 12 12 11 11 10 10 10 10 10 10 10 11 11 11 11 10 10 10 9 9 9 8 7 4 0 2 4 5 6 7 11 8 11 12 12 12 12 12 12
14 15 13 13 12 11 10 10 10 10 9 9 9 9 10 10 11 11 10 9 9 9 8 8 8 7 6 3 2 3 5 5 6 10 8 9 12 12 12 12 11 11 11
11 11 12 12 11 10 11 11 10 9 9 9 8 9 8 6 8 7 10 10 9 8 7 7 7 7 5 4 4 5 5 1 8 8 7 11 12 12 11 11 11 10 10
10 10 9 9 9 8 8 8 6 7 7 5 5 6 4 3 4 8 10 10 9 8 7 7 7 7 5 4 5 6 3 3 6 8 8 13 11 11 11 10 10 10 9
8 9 10 8 5 6 6 6 4 4 4 4 4 4 3 3 4 6 5 6 6 7 5 6 6 5 4 2 2 2 1 2 4 7 9 12 11 11 10 9 9 9 9
7 8 9 9 4 3 4 3 4 4 4 3 4 3 3 1 2 3 2 4 4 3 3 3 3 3 2 1 1 0 1 3 5 6 8 13 11 10 10 9 9 8 8
7 7 9 7 5 3 2 0 3 3 4 4 3 2 3 3 2 3 1 1 2 3 3 2 1 2 1 1 2 1 2 3 5 7 7 12 12 10 10 9 9 8 8
8 7 7 7 6 4 2 0 0 2 3 3 3 3 2 2 2 2 2 1 1 2 2 2 2 2 1 1 1 1 1 2 4 7 8 8 11 11 10 10 10 9 9
8 8 7 7 7 5 4 3 3 3 4 2 3 4 3 2 3 2 2 2 2 2 2 2 2 2 2 2 2 1 1 1 3 5 7 6 7 10 11 10 10 10 10
9 8 7 7 8 6 3 3 2 2 2 2 2 3 4 3 4 2 2 2 2 1 2 2 2 2 1 1 1 1 2 2 3 4 5 6 7 7 10 12 11 11 11
8 8 7 5 8 7 5 3 3 1 1 1 2 2 4 4 5 3 2 2 2 2 2 2 2 1 1 1 2 2 2 3 3 5 5 6 6 7 7 11 14 13 13
9 8 7 5 6 6 5 3 2 2 2 2 2 3 4 4 5 4 2 2 2 1 1 1 1 1 1 2 3 3 3 3 3 3 5 5 5 7 9 9 9 10 15
9 8 8 7 6 4 4 4 4 3 3 3 3 4 5 5 4 3 2 3 2 2 2 2 1 2 2 2 2 1 2 4 4 4 4 4 5 6 6 8 8 7 8
10 9 8 7 8 7 4 3 2 2 2 3 2 3 4 4 5 5 4 3 3 2 2 2 2 1 2 2 2 1 1 2 2 5 4 4 5 4 5 9 7 7 6
10 9 8 7 7 7 5 4 3 2 2 2 2 3 4 5 5 4 4 3 3 3 3 4 4 4 3 3 2 2 1 2 2 2 4 4 4 3 4 4 7 8 7
10 9 7 7 6 6 5 5 5 4 4 3 2 3 3 4 5 4 4 4 4 3 3 5 5 4 4 4 3 3 3 1 1 1 2 2 3 3 3 4 5 5 6
9 9 7 6 6 5 4 4 4 3 3 2 2 2 2 3 4 4 5 5 5 4 4 5 3 4 4 4 3 2 2 2 3 2 2 2 2 3 3 3 2 3 5
8 8 8 7 6 5 5 4 4 4 3 2 2 2 2 2 3 4 5 4 5 4 5 5 5 5 4 4 3 2 2 2 2 2 3 3 3 3 3 3 3 3 4
Wind_Direction
106 106 106 104 101 100 98 95 92 90 87 86 84 83 84 85 85 86 88 89 90 89 88 87 87 88 88 88 88 90 91 92 94 96 95 93 93 96 102 106 102 99 103
109 108 106 105 103 101 99 97 94 92 91 90 87 87 87 88 89 89 91 92 92 90 89 88 87 88 89 90 91 93 96 99 102 104 100 92 90 91 93 95 98 105 106
111 113 109 104 103 102 101 100 97 94 92 92 91 90 90 91 92 93 93 94 94 92 91 90 90 89 90 91 93 95 100 105 113 117 110 98 91 89 93 98 104 107 106
116 114 107 108 106 105 102 102 101 98 95 95 94 93 93 93 94 95 96 96 95 94 93 92 92 92 92 94 95 98 102 109 120 129 105 95 93 94 97 102 105 105 106
105 106 110 111 109 107 105 103 101 100 98 98 97 95 95 96 96 97 97 97 96 95 94 94 94 95 94 95 96 98 95 97 96 92 88 87 89 100 103 107 107 108 107
116 113 114 113 110 109 107 104 103 101 102 101 100 99 98 98 100 100 99 99 97 96 96 95 96 97 96 96 96 84 60 44 73 97 98 97 97 103 106 108 108 108 108
115 117 119 117 114 112 110 107 106 105 105 105 104 103 101 101 102 101 100 99 99 98 97 97 98 99 99 97 88 53 8 354 105 96 92 92 98 105 108 109 109 110 109
118 118 120 120 118 116 114 112 111 110 110 109 108 108 108 106 106 105 104 103 102 99 98 100 102 104 104 100 76 13 351 345 104 101 97 97 107 109 110 111 111 112 112
120 126 134 133 126 122 119 118 116 116 115 114 116 118 119 117 116 113 110 109 107 105 104 106 109 111 114 118 108 323 330 342 97 110 107 106 114 114 114 115 116 116 117
126 133 137 139 138 138 131 128 124 124 126 127 130 133 133 131 129 128 122 116 115 115 115 117 120 125 132 155 232 291 311 314 114 101 103 116 120 119 120 121 120 119 121
123 129 136 136 144 146 140 137 142 140 140 144 149 153 157 158 146 146 121 129 130 130 132 135 139 147 159 191 233 269 291 266 102 99 103 122 127 124 124 125 126 124 127
128 130 128 130 141 148 136 142 155 154 152 176 157 168 180 160 143 129 136 145 149 151 156 165 165 171 193 193 212 235 251 151 116 111 118 131 131 131 131 132 132 133 132
138 134 128 123 140 137 128 153 154 144 152 169 155 171 163 152 144 135 154 156 168 172 182 171 185 202 209 204 194 201 213 95 102 110 130 138 139 140 141 141 141 141 143
150 139 132 129 129 99 114 140 148 146 152 155 162 186 146 141 140 141 160 169 176 180 178 184 195 177 171 195 199 155 99 102 111 112 140 148 149 151 152 152 152 152 151
150 142 124 123 113 101 78 55 144 143 148 151 156 167 157 159 154 140 146 183 190 157 167 200 157 138 139 192 218 126 74 95 115 126 139 157 158 161 164 165 167 168 166
160 146 131 134 130 136 143 92 78 141 138 155 156 159 182 147 132 145 165 216 211 159 150 172 160 150 179 206 207 119 122 101 113 130 145 162 170 172 175 178 179 181 181
159 146 144 150 147 165 175 195 193 191 166 158 144 152 178 157 146 170 175 207 207 160 143 166 184 190 203 192 176 158 143 129 133 138 149 162 173 185 187 187 188 190 192
158 151 164 176 159 166 192 208 233 210 146 145 151 159 183 167 177 197 188 199 183 172 176 185 203 200 181 173 166 188 161 162 166 170 171 172 172 178 190 196 195 196 199
152 152 167 181 155 166 185 199 235 219 149 161 154 172 184 184 189 199 200 182 186 190 199 210 166 191 194 194 202 190 198 188 188 202 187 189 179 171 174 191 198 200 204
153 157 167 176 158 165 173 188 220 220 193 195 187 180 179 194 197 206 196 181 207 204 182 199 146 208 229 229 243 197 202 196 204 203 202 199 186 183 181 177 188 205 210
159 164 169 177 168 177 186 189 197 204 207 209 206 190 192 204 196 203 222 175 205 217 194 195 202 220 235 237 249 241 229 213 203 202 212 202 198 193 181 171 184 189 200
167 172 174 182 177 187 193 202 199 200 213 211 211 182 199 202 201 201 205 205 197 209 223 224 215 240 254 231 216 230 275 264 239 214 200 206 205 192 192 189 188 187 190
172 178 182 181 177 188 187 186 201 184 225 226 208 194 201 204 210 214 197 211 196 207 210 217 214 218 239 253 223 194 214 235 261 236 212 206 195 189 207 195 191 193 195
173 176 174 171 173 180 186 193 193 194 206 219 217 195 196 210 217 213 205 208 214 220 209 219 217 220 226 246 248 224 226 221 219 291 274 226 203 199 218 226 207 188 190
173 171 168 167 175 179 191 201 202 211 210 213 206 178 196 209 221 222 214 207 208 222 223 225 223 221 222 232 243 231 233 245 224 214 253 266 249 217 210 221 217 192 193
166 162 159 161 172 176 188 199 204 215 214 220 224 189 203 211 213 219 223 215 211 219 226 227 225 226 230 240 245 253 233 217 229 224 228 236 240 238 213 206 202 193 190